CW1621 Weather Reports


Display with metric or nautical units.
time (UTC)temp
F
wind
direction
speed
MPH
gust
MPH
rain 1hr
in
rain 24hr
in
rain mn
in
humidity
%
barometer
mb
20260901003602 78 34 7.0 12.0 0.00 0.00 0.00 26 1012.3
20260901002603 78 35 6.0 10.0 0.00 0.00 0.00 26 1012.4
20260901002103 78 59 7.0 12.0 0.00 0.00 0.00 26 1012.4
20260901001602 79 63 6.0 12.0 0.00 0.00 0.00 26 1012.2
20260901001103 79 61 6.0 12.0 0.00 0.00 0.00 26 1012.3
20260901000603 79 46 9.0 12.0 0.00 0.00 0.00 26 1012.3
20260901000103 79 34 8.0 13.0 0.00 0.00 0.00 26 1012.5
20260831235603 79 84 10.0 13.0 0.00 0.00 0.00 26 1012.4
20260831235103 79 67 7.0 12.0 0.00 0.00 0.00 26 1012.5
20260831234603 79 18 8.0 14.0 0.00 0.00 0.00 26 1012.6
20260831234103 79 31 8.0 14.0 0.00 0.00 0.00 26 1012.5
20260831233603 79 56 7.0 14.0 0.00 0.00 0.00 26 1012.6
20260831233103 79 54 6.0 10.0 0.00 0.00 0.00 26 1012.6
20260831232602 79 21 5.0 12.0 0.00 0.00 0.00 27 1012.5
20260831232102 79 37 10.0 15.0 0.00 0.00 0.00 26 1012.6
20260831230603 79 10 4.0 14.0 0.00 0.00 0.00 26 1013.2
20260831225103 80 81 5.0 10.0 0.00 0.00 0.00 26 1013.1
20260831224103 80 26 9.0 12.0 0.00 0.00 0.00 26 1013.3
20260831223603 79 54 6.0 12.0 0.00 0.00 0.00 26 1013.6
20260831223103 79 46 8.0 15.0 0.00 0.00 0.00 27 1013.5
20260831222603 80 54 2.0 7.0 0.00 0.00 0.00 27 1013.4
20260831222103 79 19 5.0 10.0 0.00 0.00 0.00 27 1013.7
20260831221602 79 28 5.0 12.0 0.00 0.00 0.00 27 1013.7
20260831221102 79 32 10.0 16.0 0.00 0.00 0.00 27 1013.8
20260831220603 79 22 5.0 12.0 0.00 0.00 0.00 26 1013.8
20260831215103 78 37 6.0 12.0 0.00 0.00 0.00 27 1014.0
20260831213604 77 26 4.0 9.0 0.00 0.00 0.00 27 1014.3
20260831213103 78 62 5.0 10.0 0.00 0.00 0.00 27 1014.2
20260831212603 79 9 3.0 8.0 0.00 0.00 0.00 27 1014.2
20260831212103 79 87 6.0 13.0 0.00 0.00 0.00 26 1014.2
20260831211603 79 335 3.0 12.0 0.00 0.00 0.00 27 1014.2
20260831211103 78 9 5.0 12.0 0.00 0.00 0.00 28 1014.3
20260831210103 77 63 8.0 13.0 0.00 0.00 0.00 27 1014.7
20260831205603 77 80 6.0 10.0 0.00 0.00 0.00 27 1014.5
20260831205103 78 73 6.0 12.0 0.00 0.00 0.00 26 1014.6
20260831204603 77 42 7.0 12.0 0.00 0.00 0.00 28 1014.7
20260831204103 76 24 6.0 12.0 0.00 0.00 0.00 28 1014.8
20260831203603 76 69 7.0 12.0 0.00 0.00 0.00 28 1015.0
20260831203103 77 70 10.0 13.0 0.00 0.00 0.00 27 1015.1
20260831202603 77 64 7.0 14.0 0.00 0.00 0.00 28 1014.9
20260831202103 77 87 8.0 12.0 0.00 0.00 0.00 27 1015.2
20260831201602 76 48 2.0 3.0 0.00 0.00 0.00 29 1015.1
20260831201103 76 64 7.0 14.0 0.00 0.00 0.00 28 1015.3
20260831200603 76 78 6.0 15.0 0.00 0.00 0.00 28 1015.2
20260831200103 76 10 6.0 14.0 0.00 0.00 0.00 29 1015.2
20260831195603 75 71 8.0 14.0 0.00 0.00 0.00 29 1015.5
20260831195103 75 77 8.0 15.0 0.00 0.00 0.00 29 1015.6
20260831194603 75 77 6.0 14.0 0.00 0.00 0.00 29 1015.6
20260831194103 75 95 6.0 17.0 0.00 0.00 0.00 29 1015.7
20260831193603 74 36 7.0 12.0 0.00 0.00 0.00 29 1015.8
20260831193103 74 84 10.0 18.0 0.00 0.00 0.00 30 1015.8
20260831192103 73 106 9.0 12.0 0.00 0.00 0.00 31 1016.2
20260831191603 73 100 9.0 14.0 0.00 0.00 0.00 30 1016.3
20260831191103 73 76 7.0 12.0 0.00 0.00 0.00 31 1016.4
20260831190603 73 103 8.0 14.0 0.00 0.00 0.00 32 1016.5
20260831185603 72 89 10.0 15.0 0.00 0.00 0.00 33 1016.7
20260831184603 71 108 3.0 14.0 0.00 0.00 0.00 34 1016.9
20260831184103 71 93 10.0 14.0 0.00 0.00 0.00 33 1017.0
20260831183603 71 107 8.0 12.0 0.00 0.00 0.00 34 1017.0
20260831182603 70 101 9.0 12.0 0.00 0.00 0.00 34 1017.4
20260831181102 69 101 8.0 13.0 0.00 0.00 0.00 35 1017.4
20260831180602 69 99 10.0 14.0 0.00 0.00 0.00 36 1017.3
20260831175103 68 119 10.0 14.0 0.00 0.00 0.00 37 1017.5
20260831174103 67 113 12.0 15.0 0.00 0.00 0.00 38 1017.8
20260831173603 67 108 10.0 14.0 0.00 0.00 0.00 38 1017.9
20260831172603 66 110 12.0 16.0 0.00 0.00 0.00 38 1018.0
20260831172103 66 124 12.0 16.0 0.00 0.00 0.00 39 1018.0
20260831171603 65 115 12.0 15.0 0.00 0.00 0.00 40 1018.3
20260831171103 65 112 12.0 16.0 0.00 0.00 0.00 40 1018.2
20260831170603 64 123 12.0 16.0 0.00 0.00 0.00 41 1018.1
20260831165603 64 112 12.0 15.0 0.00 0.00 0.00 41 1018.0
20260831165103 63 134 12.0 16.0 0.00 0.00 0.00 42 1018.2
20260831164103 63 111 12.0 14.0 0.00 0.00 0.00 43 1018.4
20260831163603 62 105 10.0 12.0 0.00 0.00 0.00 45 1018.4
20260831163103 61 104 9.0 13.0 0.00 0.00 0.00 45 1018.6
20260831162103 60 101 10.0 13.0 0.00 0.00 0.00 47 1018.8
20260831161603 60 103 10.0 12.0 0.00 0.00 0.00 47 1018.8
20260831161103 59 106 10.0 13.0 0.00 0.00 0.00 49 1018.7
20260831160604 59 106 10.0 13.0 0.00 0.00 0.00 49 1018.3
20260831160103 58 103 10.0 12.0 0.00 0.00 0.00 50 1018.6
20260831155103 57 103 10.0 13.0 0.00 0.00 0.00 51 1018.6
20260831154603 57 108 10.0 12.0 0.00 0.00 0.00 51 1018.7
20260831154103 56 107 10.0 12.0 0.00 0.00 0.00 52 1019.0
20260831153603 56 101 9.0 12.0 0.00 0.00 0.00 53 1019.0
20260831153103 56 95 9.0 12.0 0.00 0.00 0.00 53 1019.0
20260831152604 55 92 7.0 12.0 0.00 0.00 0.00 54 1019.0
20260831152102 55 101 9.0 12.0 0.00 0.00 0.00 53 1019.0
20260831151603 55 114 8.0 12.0 0.00 0.00 0.00 54 1018.9
20260831151103 54 126 9.0 12.0 0.00 0.00 0.00 55 1018.9
20260831150603 54 120 9.0 12.0 0.00 0.00 0.00 55 1018.8
20260831145603 53 112 6.0 10.0 0.00 0.00 0.00 57 1018.9
20260831145103 53 105 7.0 12.0 0.00 0.00 0.00 57 1018.8
20260831144603 53 108 6.0 9.0 0.00 0.00 0.00 57 1018.7
20260831144103 53 117 5.0 10.0 0.00 0.00 0.00 57 1018.7
20260831143603 53 111 6.0 10.0 0.00 0.00 0.00 58 1018.6
20260831143103 52 121 8.0 12.0 0.00 0.00 0.00 58 1018.9
20260831142103 51 120 9.0 10.0 0.00 0.00 0.00 60 1018.8
20260831141603 51 116 7.0 9.0 0.00 0.00 0.00 61 1018.8
20260831141103 50 115 6.0 9.0 0.00 0.00 0.00 61 1018.4
20260831140603 50 124 6.0 8.0 0.00 0.00 0.00 62 1018.1
20260831135602 48 123 6.0 7.0 0.00 0.00 0.00 64 1018.4
20260831135103 47 122 6.0 7.0 0.00 0.00 0.00 65 1018.4
20260831133603 47 112 5.0 6.0 0.00 0.00 0.00 64 1018.3
20260831133103 47 125 5.0 5.0 0.00 0.00 0.00 64 1018.4
20260831132603 47 138 3.0 5.0 0.00 0.00 0.00 63 1018.4
20260831132103 47 145 4.0 5.0 0.00 0.00 0.00 64 1018.4
20260831131603 47 160 3.0 3.0 0.00 0.00 0.00 65 1018.3
20260831131104 47 174 2.0 3.0 0.00 0.00 0.00 65 1018.0
20260831125603 47 174 2.0 3.0 0.00 0.00 0.00 64 1017.8
20260831125103 47 178 2.0 3.0 0.00 0.00 0.00 65 1017.8
20260831124603 47 179 1.0 2.0 0.00 0.00 0.00 64 1017.8
20260831124103 47 179 1.0 3.0 0.00 0.00 0.00 64 1017.7
20260831123604 47 179 2.0 3.0 0.00 0.00 0.00 64 1017.7
20260831123103 47 179 2.0 3.0 0.00 0.00 0.00 65 1017.6
20260831122603 47 179 1.0 3.0 0.00 0.00 0.00 65 1017.7
20260831122103 47 179 2.0 3.0 0.00 0.00 0.00 65 1017.8
20260831121603 47 179 2.0 3.0 0.00 0.00 0.00 65 1017.8
20260831121103 47 179 1.0 3.0 0.00 0.00 0.00 66 1017.6
20260831120603 47 179 2.0 3.0 0.00 0.00 0.00 65 1017.6
20260831115603 47 179 2.0 3.0 0.00 0.00 0.00 65 1017.7
20260831115103 47 179 3.0 3.0 0.00 0.00 0.00 65 1017.7
20260831114603 47 179 3.0 3.0 0.00 0.00 0.00 64 1017.6
20260831114103 48 182 5.0 6.0 0.00 0.00 0.00 64 1017.6
20260831113603 47 207 2.0 3.0 0.00 0.00 0.00 65 1017.6
20260831113103 47 207 2.0 3.0 0.00 0.00 0.00 65 1017.6
20260831112603 47 207 1.0 2.0 0.00 0.00 0.00 66 1017.6
20260831111604 46 207 1.0 3.0 0.00 0.00 0.00 67 1018.0
20260831111103 46 207 2.0 3.0 0.00 0.00 0.00 66 1018.1
20260831110603 46 207 3.0 3.0 0.00 0.00 0.00 67 1018.1
20260831105603 45 207 1.0 3.0 0.00 0.00 0.00 68 1018.4
20260831105103 45 207 1.0 3.0 0.00 0.00 0.00 68 1018.4
20260831104603 45 207 2.0 3.0 0.00 0.00 0.00 68 1018.5
20260831104103 45 207 2.0 3.0 0.00 0.00 0.00 67 1018.2
20260831103103 46 207 1.0 2.0 0.00 0.00 0.00 66 1018.2
20260831102603 46 207 1.0 3.0 0.00 0.00 0.00 66 1018.2
20260831101603 46 207 2.0 3.0 0.00 0.00 0.00 66 1018.2
20260831100602 46 207 2.0 3.0 0.00 0.00 0.00 68 1017.9
20260831100103 46 207 2.0 3.0 0.00 0.00 0.00 68 1017.9
20260831095603 45 207 2.0 3.0 0.00 0.00 0.00 68 1018.0
20260831095103 45 207 2.0 3.0 0.00 0.00 0.00 67 1018.3
20260831093103 46 207 2.0 3.0 0.00 0.00 0.00 66 1018.1
20260831092603 46 207 2.0 3.0 0.00 0.00 0.00 66 1018.2
20260831092103 46 207 2.0 3.0 0.00 0.00 0.00 67 1018.2
20260831091103 46 208 2.0 3.0 0.00 0.00 0.00 66 1018.4
20260831090603 46 208 2.0 3.0 0.00 0.00 0.00 66 1018.5
20260831085603 46 213 2.0 3.0 0.00 0.00 0.00 66 1018.6
20260831085103 47 215 2.0 3.0 0.00 0.00 0.00 66 1018.6
20260831084603 47 215 2.0 3.0 0.00 0.00 0.00 66 1018.7
20260831084103 46 217 2.0 3.0 0.00 0.00 0.00 66 1018.7
20260831083603 46 217 2.0 3.0 0.00 0.00 0.00 67 1018.8
20260831082603 46 217 3.0 3.0 0.00 0.00 0.00 67 1018.8
20260831081603 46 214 3.0 3.0 0.00 0.00 0.00 66 1018.8
20260831081104 46 219 2.0 3.0 0.00 0.00 0.00 66 1018.9
20260831080103 46 219 2.0 3.0 0.00 0.00 0.00 66 1019.1
20260831075603 46 219 2.0 3.0 0.00 0.00 0.00 65 1019.0
20260831075104 46 216 3.0 3.0 0.00 0.00 0.00 67 1019.2
20260831074603 46 219 3.0 3.0 0.00 0.00 0.00 65 1019.4
20260831074103 46 219 2.0 3.0 0.00 0.00 0.00 65 1019.4
20260831073603 46 219 2.0 3.0 0.00 0.00 0.00 66 1019.4
20260831073103 46 219 2.0 3.0 0.00 0.00 0.00 66 1019.5
20260831072103 45 225 2.0 3.0 0.00 0.00 0.00 67 1019.4
20260831071603 45 226 3.0 3.0 0.00 0.00 0.00 66 1019.4
20260831071104 45 225 3.0 3.0 0.00 0.00 0.00 67 1019.6
20260831070603 46 225 3.0 5.0 0.00 0.00 0.00 66 1019.4
20260831070103 45 227 2.0 3.0 0.00 0.00 0.00 66 1019.6
20260831065603 46 227 2.0 5.0 0.00 0.00 0.00 66 1019.3
20260831065103 46 230 2.0 3.0 0.00 0.00 0.00 64 1019.2
20260831064603 47 230 2.0 3.0 0.00 0.00 0.00 64 1019.3
20260831064103 47 230 3.0 3.0 0.00 0.00 0.00 64 1019.3
20260831063103 47 230 2.0 3.0 0.00 0.00 0.00 63 1019.3
20260831062603 47 230 2.0 3.0 0.00 0.00 0.00 64 1019.4
20260831061603 48 230 2.0 3.0 0.00 0.00 0.00 63 1019.1
20260831060603 48 240 2.0 3.0 0.00 0.00 0.00 63 1019.6
20260831055103 48 242 2.0 3.0 0.00 0.00 0.00 62 1019.7
20260831054603 48 241 2.0 3.0 0.00 0.00 0.00 62 1019.7
20260831053603 48 242 3.0 3.0 0.00 0.00 0.00 62 1019.8
20260831053103 48 243 2.0 3.0 0.00 0.00 0.00 62 1019.7
20260831052603 48 243 3.0 3.0 0.00 0.00 0.00 62 1019.7
20260831052103 48 243 2.0 3.0 0.00 0.00 0.00 60 1019.8
20260831051103 50 351 0.0 0.0 0.00 0.00 0.00 58 1019.7
20260831050104 51 351 0.0 0.0 0.00 0.00 0.00 60 1019.6
20260831045603 51 351 0.0 0.0 0.00 0.00 0.00 60 1019.6
20260831045104 51 351 0.0 0.0 0.00 0.00 0.00 59 1019.6
20260831044105 52 351 0.0 2.0 0.00 0.00 0.00 57 1019.6
20260831043103 54 352 1.0 3.0 0.00 0.00 0.00 54 1019.5
20260831042603 55 351 1.0 2.0 0.00 0.00 0.00 54 1019.3
20260831042103 54 352 0.0 0.0 0.00 0.00 0.00 55 1019.5
20260831041602 55 351 0.0 0.0 0.00 0.00 0.00 54 1019.2
20260831041103 55 352 0.0 0.0 0.00 0.00 0.00 54 1019.5
20260831040603 55 352 0.0 0.0 0.00 0.00 0.00 54 1019.7
20260831040103 55 353 0.0 0.0 0.00 0.00 0.00 54 1019.7
20260831035603 56 353 0.0 0.0 0.00 0.00 0.00 53 1019.5
20260831035103 56 352 0.0 0.0 0.00 0.00 0.00 51 1019.4
20260831034603 57 352 0.0 2.0 0.00 0.00 0.00 52 1019.4
20260831034103 57 351 2.0 2.0 0.00 0.00 0.00 51 1019.4
20260831033603 57 353 0.0 0.0 0.00 0.00 0.00 51 1019.4
20260831033103 57 352 0.0 2.0 0.00 0.00 0.00 51 1019.4
20260831032604 58 353 0.0 2.0 0.00 0.00 0.00 50 1019.1
20260831032103 58 352 1.0 2.0 0.00 0.00 0.00 50 1019.1
20260831031603 58 353 0.0 1.0 0.00 0.00 0.00 49 1019.1
20260831030603 59 352 0.0 1.0 0.00 0.00 0.00 48 1019.3
20260831025603 60 348 0.0 3.0 0.00 0.00 0.00 47 1019.2
20260831025103 60 347 0.0 1.0 0.00 0.00 0.00 46 1019.1
20260831024603 61 343 0.0 0.0 0.00 0.00 0.00 45 1018.8
20260831023603 61 343 1.0 2.0 0.00 0.00 0.00 44 1018.6
20260831023103 62 343 2.0 3.0 0.00 0.00 0.00 43 1018.5
20260831022603 62 343 2.0 3.0 0.00 0.00 0.00 42 1018.4
20260831021603 64 325 0.0 0.0 0.00 0.00 0.00 40 1018.3
20260831021103 64 324 0.0 0.0 0.00 0.00 0.00 39 1019.2
20260831020604 65 322 0.0 0.0 0.00 0.00 0.00 38 1019.4
20260831020103 66 322 0.0 0.0 0.00 0.00 0.00 37 1019.1
20260831015604 66 322 0.0 1.0 0.00 0.00 0.00 37 1019.2
20260831015103 67 324 2.0 3.0 0.00 0.00 0.00 36 1019.2
20260831014103 68 303 1.0 3.0 0.00 0.00 0.00 35 1019.0
20260831013103 69 324 1.0 3.0 0.00 0.00 0.00 34 1019.1
20260831012603 69 325 3.0 5.0 0.00 0.00 0.00 34 1019.1
20260831012103 69 323 2.0 5.0 0.00 0.00 0.00 34 1019.1
20260831011603 69 341 1.0 7.0 0.00 0.00 0.00 34 1019.0
20260831011103 69 334 2.0 5.0 0.00 0.00 0.00 33 1018.7
20260831010603 70 285 2.0 5.0 0.00 0.00 0.00 33 1018.5
20260831005104 69 335 3.0 6.0 0.00 0.00 0.00 33 1018.5
20260831004602 69 333 3.0 6.0 0.00 0.00 0.00 33 1018.4
20260831004103 70 284 2.0 7.0 0.00 0.00 0.00 32 1018.5